Johnstown, PA

8:20 PM EDT on August 27, 2014 (GMT -0400)
Brownstown | Change Station
CLOSE
Current Station
Personal Weather Station
Location: Johnstown, PA
Elevation: 1516 ft
Nearby Weather Stations

Elev 1516 ft 40.34 °N, 78.94 °W | Updated 1 second ago

Rain
Rain
68.9 °F
Feels Like 68.9 °F
N
0.0
Wind Variable Wind from NNE
Gusts 0.0 mph

Today
High -- | Low -- °F
--% Chance of Precip.
Yesterday
High -- | Low -- °F
Precip. -- in
6:38 AM 7:55 PM
Waxing Crescent, 5% visible
Pressure 30.01 in
Visibility 4.0 miles
Clouds Few 700 ft
Scattered Clouds 3300 ft
Mostly Cloudy 6500 ft
Dew Point 69 °F
Humidity 99%
Rainfall 0.24 in
Snow Depth Not available.
UV 0 out of 12
Pollen 10.00 out of 12
Air Quality Not available.
Flu Activity Not available.
METAR KJST 272354Z AUTO 26007KT 4SM BR FEW007 SCT033 BKN065 21/20 A3005 RMK AO2 LTG DSNT E RAE12 TSB37E52 SLP163 P0001 60075 T02110200 10278 20200 56000

More Conditions Fewer Conditions

Pressure 30.01 in
Visibility 4.0 miles
Clouds Few 700 ft
Scattered Clouds 3300 ft
Mostly Cloudy 6500 ft
Dew Point 69 °F
Humidity 99%
Rainfall 0.24 in
Snow Depth Not available.
UV 0 out of 12
Pollen 10.00 out of 12
Air Quality Not available.
Flu Activity Not available.
METAR KJST 272354Z AUTO 26007KT 4SM BR FEW007 SCT033 BKN065 21/20 A3005 RMK AO2 LTG DSNT E RAE12 TSB37E52 SLP163 P0001 60075 T02110200 10278 20200 56000

More Conditions Fewer Conditions

10-Day Weather Forecast

Almanac

Astronomy

Aug. 27, 2014 Rise Set
Actual Time 6:38 AM EDT 7:55 PM EDT
Civil Twilight 6:10 AM EDT 8:23 PM EDT
Nautical Twilight 5:36 AM EDT 8:57 PM EDT
Astronomical Twilight 5:00 AM EDT 9:32 PM EDT
Moon 8:33 AM EDT (8/27) 8:46 PM EDT (8/27)
Length of Visible Light 14h 13m
Length of Day
13h 17m
Tomorrow will be 2m 31s shorter.
Waxing Crescent, 5% of the Moon is Illuminated
Today
Waxing Crescent
Sep 2
First Quarter
Sep 8
Full
Sep 15
Last Quarter
Sep 24
New

Today's Extremes

State Highs State Lows

Community

WunderPhotos

Upload Photos

1,747,829 photos uploaded!

Nearby

Snow Depth

Station Depth Elevation
No new snow has been reported.

Earthquake Activity

City Distance Mag. Time & Date
No recent earthquake activity has been reported nearby.
Minimum magnitude displayed is 2.5.

Coastal Water Temperatures

Place Temperature
No Stations Reporting

Nearby Weather Stations